THY3UN LTFM-EGLL

Flight info

Callsign THY3UN
Flight time N/A
Altitude 36000
Route TUDBU Q26 ETUBA DCT NAVOD DCT INVED DCT BEGLA/N0475F380 DCT DEXIT DCT INBED DCT BOMBI DCT ADKUV DCT BUB L608 LOGAN
Aircraft B77W/H-SDE1E2E3FGHIJ2J3J4J5M1RWXY/LB1D1

Departure

Time N/A
Airport İstanbul Airport (LTFM)

Arrival

Time 2026-05-06 18:02
Airport London Heathrow Airport (EGLL)
Time Latitude Longitude Altitude Speed Heading
2026-05-06 17:19 50.80324 5.13661 37898 ft 467 kts 282°
2026-05-06 17:19 50.81983 5.03752 37884 ft 467 kts 283°
2026-05-06 17:20 50.84504 4.94294 37903 ft 471 kts 296°
2026-05-06 17:20 50.87654 4.85230 37898 ft 471 kts 295°
2026-05-06 17:21 50.90631 4.76000 37891 ft 471 kts 294°
2026-05-06 17:21 50.93463 4.66732 38017 ft 473 kts 294°
2026-05-06 17:22 50.96341 4.57316 37904 ft 475 kts 295°
2026-05-06 17:22 50.99334 4.47957 37889 ft 475 kts 296°
2026-05-06 17:23 51.02344 4.38701 37886 ft 475 kts 296°
2026-05-06 17:23 51.05313 4.29486 37907 ft 474 kts 295°
2026-05-06 17:24 51.08226 4.20364 37901 ft 473 kts 295°
2026-05-06 17:24 51.11212 4.10970 37901 ft 473 kts 295°
2026-05-06 17:25 51.14165 4.01646 37901 ft 472 kts 295°
2026-05-06 17:25 51.17103 3.92338 37897 ft 472 kts 295°
2026-05-06 17:26 51.20018 3.83066 37900 ft 473 kts 295°
2026-05-06 17:26 51.22934 3.73759 37906 ft 473 kts 295°
2026-05-06 17:27 51.25839 3.64452 37900 ft 473 kts 295°
2026-05-06 17:27 51.28754 3.55072 37917 ft 472 kts 295°
2026-05-06 17:28 51.31658 3.45692 37911 ft 472 kts 295°
2026-05-06 17:28 51.34542 3.36323 37918 ft 471 kts 294°
2026-05-06 17:29 51.36985 3.26565 37924 ft 469 kts 289°
2026-05-06 17:29 51.39240 3.16861 37913 ft 467 kts 289°
2026-05-06 17:30 51.41554 3.07080 37927 ft 466 kts 289°
2026-05-06 17:30 51.43839 2.97351 37945 ft 466 kts 289°
2026-05-06 17:31 51.46110 2.87622 37950 ft 467 kts 289°
2026-05-06 17:31 51.48360 2.77943 37950 ft 467 kts 289°
2026-05-06 17:32 51.50605 2.68244 37956 ft 467 kts 289°
2026-05-06 17:32 51.52859 2.58463 37939 ft 468 kts 289°
2026-05-06 17:33 51.55109 2.48660 37755 ft 470 kts 289°
2026-05-06 17:33 51.56234 2.43711 36964 ft 472 kts 289°
2026-05-06 17:33 51.57354 2.38772 36219 ft 470 kts 289°
2026-05-06 17:33 51.58469 2.33841 35434 ft 468 kts 289°
2026-05-06 17:34 51.59584 2.28935 34576 ft 469 kts 289°
2026-05-06 17:34 51.60705 2.24012 33623 ft 470 kts 290°
2026-05-06 17:34 51.61829 2.19078 32733 ft 467 kts 289°
2026-05-06 17:34 51.62931 2.14219 32054 ft 462 kts 289°
2026-05-06 17:35 51.64015 2.09418 31415 ft 456 kts 289°
2026-05-06 17:35 51.65092 2.04651 30792 ft 451 kts 289°
2026-05-06 17:35 51.66156 1.99931 30182 ft 446 kts 289°
2026-05-06 17:36 51.68251 1.90613 28854 ft 437 kts 289°
2026-05-06 17:36 51.69276 1.86036 28238 ft 432 kts 289°
2026-05-06 17:36 51.70277 1.81558 27643 ft 428 kts 289°
2026-05-06 17:36 51.71275 1.77086 27028 ft 423 kts 289°
2026-05-06 17:37 51.72266 1.72636 26440 ft 420 kts 289°
2026-05-06 17:37 51.73246 1.68226 25839 ft 416 kts 289°
2026-05-06 17:37 51.74035 1.63756 25253 ft 413 kts 280°
2026-05-06 17:37 51.74355 1.59190 24772 ft 407 kts 271°
2026-05-06 17:38 51.74343 1.54640 24128 ft 405 kts 268°
2026-05-06 17:38 51.74219 1.50094 23440 ft 406 kts 267°
2026-05-06 17:38 51.74065 1.45559 22748 ft 403 kts 266°
2026-05-06 17:38 51.73904 1.41072 22216 ft 397 kts 266°
2026-05-06 17:39 51.73740 1.36653 21675 ft 392 kts 266°
2026-05-06 17:39 51.73574 1.32286 21097 ft 389 kts 266°
2026-05-06 17:39 51.73404 1.27942 20505 ft 386 kts 266°
2026-05-06 17:39 51.73234 1.23687 19943 ft 384 kts 266°
2026-05-06 17:40 51.73060 1.19408 19403 ft 381 kts 266°
2026-05-06 17:40 51.72884 1.15171 18873 ft 378 kts 266°
2026-05-06 17:40 51.72707 1.10960 18348 ft 375 kts 266°
2026-05-06 17:40 51.72527 1.06782 17759 ft 372 kts 266°
2026-05-06 17:41 51.72346 1.02634 17184 ft 370 kts 266°
2026-05-06 17:41 51.72162 0.98519 16619 ft 367 kts 266°
2026-05-06 17:41 51.71975 0.94424 16174 ft 364 kts 266°
2026-05-06 17:41 51.71786 0.90376 16041 ft 369 kts 266°
2026-05-06 17:42 51.71589 0.86258 15539 ft 369 kts 266°
2026-05-06 17:42 51.71391 0.82190 15047 ft 366 kts 266°
2026-05-06 17:42 51.71189 0.78132 14631 ft 360 kts 266°
2026-05-06 17:42 51.70988 0.74158 14164 ft 356 kts 266°
2026-05-06 17:43 51.70751 0.70203 13643 ft 354 kts 263°
2026-05-06 17:43 51.70361 0.66289 13072 ft 351 kts 261°
2026-05-06 17:43 51.69917 0.62450 12534 ft 349 kts 260°
2026-05-06 17:43 51.69467 0.58625 11998 ft 346 kts 260°
2026-05-06 17:44 51.69029 0.54831 11496 ft 343 kts 261°
2026-05-06 17:44 51.68605 0.51096 11010 ft 340 kts 261°
2026-05-06 17:44 51.68187 0.47357 10491 ft 339 kts 261°
2026-05-06 17:44 51.67774 0.43639 9943 ft 338 kts 261°
2026-05-06 17:45 51.67365 0.39936 9362 ft 338 kts 261°
2026-05-06 17:45 51.66955 0.36237 9096 ft 334 kts 261°
2026-05-06 17:45 51.66551 0.32600 8991 ft 335 kts 261°
2026-05-06 17:45 51.66137 0.28866 8991 ft 335 kts 261°
2026-05-06 17:46 51.65709 0.25027 8987 ft 331 kts 261°
2026-05-06 17:46 51.65326 0.21608 8965 ft 317 kts 261°
2026-05-06 17:46 51.64944 0.18216 8879 ft 304 kts 261°
2026-05-06 17:46 51.64575 0.14893 8752 ft 291 kts 262°
2026-05-06 17:47 51.64335 0.11774 8424 ft 278 kts 264°
2026-05-06 17:47 51.64053 0.08729 8089 ft 277 kts 261°
2026-05-06 17:47 51.63736 0.05674 7999 ft 280 kts 261°
2026-05-06 17:47 51.63415 0.02626 8005 ft 282 kts 261°
2026-05-06 17:48 51.63092 -0.00463 8031 ft 279 kts 261°
2026-05-06 17:48 51.62755 -0.03492 8028 ft 275 kts 262°
2026-05-06 17:48 51.62396 -0.06504 8031 ft 274 kts 261°
2026-05-06 17:48 51.62029 -0.09499 8039 ft 275 kts 261°
2026-05-06 17:49 51.61653 -0.12519 8036 ft 275 kts 260°
2026-05-06 17:49 51.61286 -0.15534 8038 ft 275 kts 262°
2026-05-06 17:49 51.60914 -0.18560 8040 ft 275 kts 261°
2026-05-06 17:49 51.60563 -0.21500 8044 ft 276 kts 261°
2026-05-06 17:50 51.60200 -0.24494 8055 ft 276 kts 260°
2026-05-06 17:50 51.59832 -0.27497 8002 ft 277 kts 261°
2026-05-06 17:50 51.59450 -0.30553 8000 ft 277 kts 261°
2026-05-06 17:50 51.59073 -0.33576 7996 ft 277 kts 260°
2026-05-06 17:51 51.58712 -0.36538 7990 ft 277 kts 261°
2026-05-06 17:51 51.58340 -0.39589 7920 ft 278 kts 261°
2026-05-06 17:51 51.57966 -0.42681 7520 ft 285 kts 261°
2026-05-06 17:51 51.57587 -0.45827 7120 ft 287 kts 260°
2026-05-06 17:52 51.57216 -0.48935 6997 ft 278 kts 262°
2026-05-06 17:52 51.56842 -0.51892 6989 ft 265 kts 261°
2026-05-06 17:52 51.56473 -0.54741 6978 ft 252 kts 259°
2026-05-06 17:52 51.56134 -0.57417 6986 ft 239 kts 261°
2026-05-06 17:53 51.55792 -0.60092 7000 ft 246 kts 260°
2026-05-06 17:53 51.55465 -0.62772 6996 ft 242 kts 261°
2026-05-06 17:53 51.55141 -0.65377 6990 ft 237 kts 262°
2026-05-06 17:53 51.54810 -0.67938 6995 ft 235 kts 260°
2026-05-06 17:54 51.54464 -0.70684 6990 ft 237 kts 261°
2026-05-06 17:54 51.54144 -0.73164 6759 ft 244 kts 261°
2026-05-06 17:54 51.53799 -0.75831 6158 ft 248 kts 261°
2026-05-06 17:54 51.53458 -0.78549 5506 ft 249 kts 261°
2026-05-06 17:55 51.53111 -0.81254 4882 ft 250 kts 258°
2026-05-06 17:55 51.52361 -0.83752 4293 ft 250 kts 228°
2026-05-06 17:55 51.51003 -0.85351 4087 ft 235 kts 211°
2026-05-06 17:55 51.49630 -0.86558 4038 ft 217 kts 206°
2026-05-06 17:56 51.48221 -0.86956 3979 ft 203 kts 168°
2026-05-06 17:56 51.47005 -0.85922 4012 ft 206 kts 130°
2026-05-06 17:56 51.46426 -0.83928 4001 ft 193 kts 90°
2026-05-06 17:56 51.46696 -0.81901 4010 ft 184 kts 68°
2026-05-06 17:57 51.47053 -0.79891 4005 ft 191 kts 73°
2026-05-06 17:57 51.47312 -0.77755 3728 ft 199 kts 78°
2026-05-06 17:57 51.47494 -0.75547 3470 ft 200 kts 81°
2026-05-06 17:57 51.47623 -0.73313 3199 ft 200 kts 84°
2026-05-06 17:58 51.47665 -0.71115 2929 ft 200 kts 86°
2026-05-06 17:58 51.47675 -0.68920 2668 ft 191 kts 85°
2026-05-06 17:58 51.47680 -0.66870 2388 ft 176 kts 85°
2026-05-06 17:58 51.47688 -0.64968 2161 ft 165 kts 85°
2026-05-06 17:59 51.47695 -0.63164 1946 ft 160 kts 85°
2026-05-06 17:59 51.47701 -0.61425 1757 ft 159 kts 85°
2026-05-06 17:59 51.47708 -0.59625 1514 ft 161 kts 86°
2026-05-06 17:59 51.47714 -0.57860 1271 ft 152 kts 85°
2026-05-06 18:00 51.47720 -0.56227 1064 ft 140 kts 84°
2026-05-06 18:00 51.47728 -0.54681 906 ft 140 kts 86°
2026-05-06 18:00 51.47740 -0.53126 724 ft 138 kts 85°
2026-05-06 18:00 51.47740 -0.51596 522 ft 136 kts 89°
2026-05-06 18:01 51.47742 -0.50096 371 ft 135 kts 85°
2026-05-06 18:01 51.47751 -0.48612 156 ft 133 kts 87°
2026-05-06 18:01 51.47752 -0.47632 107 ft 130 kts 86°
2026-05-06 18:01 51.47760 -0.45987 93 ft 83 kts 90°
2026-05-06 18:02 51.47766 -0.45309 94 ft 43 kts 88°
2026-05-06 18:02 51.47767 -0.45065 97 ft 7 kts 90°
2026-05-06 18:02 51.47753 -0.44907 97 ft 22 kts 124°
2026-05-06 18:02 51.47657 -0.44797 96 ft 12 kts 154°
2026-05-06 18:03 51.47606 -0.44743 95 ft 7 kts 117°
2026-05-06 18:03 51.47572 -0.44675 95 ft 8 kts 151°
2026-05-06 18:03 51.47519 -0.44643 93 ft 8 kts 152°
2026-05-06 18:03 51.47487 -0.44573 96 ft 8 kts 133°
2026-05-06 18:04 51.47434 -0.44558 93 ft 9 kts 181°
2026-05-06 18:04 51.47367 -0.44558 91 ft 10 kts 180°
2026-05-06 18:04 51.47295 -0.44558 91 ft 10 kts 180°
2026-05-06 18:04 51.47219 -0.44558 91 ft 11 kts 180°
2026-05-06 18:05 51.47140 -0.44557 91 ft 12 kts 179°
2026-05-06 18:05 51.47053 -0.44556 91 ft 13 kts 179°
2026-05-06 18:05 51.46968 -0.44555 91 ft 11 kts 179°
2026-05-06 18:05 51.46938 -0.44523 94 ft 5 kts 96°
2026-05-06 18:06 51.46938 -0.44464 94 ft 6 kts 89°
2026-05-06 18:06 51.46938 -0.44429 94 ft 2 kts 90°
2026-05-06 18:06 51.46938 -0.44420 94 ft 1 kts 90°
2026-05-06 18:06 51.46938 -0.44413 94 ft 1 kts 90°
2026-05-06 18:07 51.46938 -0.44411 94 ft 0 kts 90°